Snowfall_Accumulation
nan nan nan nan nan nan nan nan nan nan nan nan nan nan nan nan nan 0.0 0.0 0.0 0.4 5.5 0.1 0.0 0.0 0.8 0.4 0.8 4.9 1.0 4.9 1.9 3.2 5.7 4.2 3.4 4.2 5.5 2.7 0.1 1.8 5.8 3.1 2.4 1.4 3.2 6.4 0.0 0.0 2.3 3.4 0.4 2.5 3.7
nan nan nan nan nan nan nan nan nan nan nan nan nan nan nan nan nan nan 0.1 0.0 0.0 1.5 0.9 0.0 0.0 0.0 0.0 0.1 1.8 0.8 2.7 1.1 1.7 3.3 3.8 4.0 3.3 2.0 2.2 2.2 0.2 12.0 4.4 6.2 0.9 1.0 0.0 0.0 0.0 0.0 0.0 0.7 1.2 4.0
nan nan nan nan nan nan nan nan nan nan nan nan nan nan nan nan nan nan 0.0 0.0 0.1 3.1 1.3 0.7 0.6 0.0 0.0 0.0 0.0 6.7 0.8 2.8 3.5 3.6 9.3 4.0 5.1 2.5 3.6 1.6 1.3 0.7 0.3 1.3 0.9 0.0 0.0 0.0 0.0 0.0 0.0 0.3 0.4 1.2
nan nan nan nan nan nan nan nan nan nan nan nan nan nan nan nan nan nan 0.0 0.0 0.1 2.6 10.6 1.2 0.0 0.2 0.0 0.0 0.0 0.1 0.5 1.1 4.5 5.8 12.3 9.7 8.0 2.8 3.8 3.8 3.6 1.4 0.4 0.3 0.2 0.1 0.1 0.0 0.0 0.0 0.1 0.1 0.2 0.2
nan nan nan nan nan nan nan nan nan nan nan nan nan nan nan nan nan nan 0.0 0.0 0.0 3.1 4.2 0.9 0.1 0.1 0.0 0.0 0.2 0.7 4.4 6.7 13.9 18.6 18.9 16.6 4.6 7.6 2.8 6.1 5.0 1.8 2.3 1.4 0.4 0.0 0.4 0.1 0.0 0.0 0.6 1.0 0.9 1.8
nan nan nan nan nan nan nan nan nan nan nan nan nan nan nan nan nan 0.0 1.3 0.3 0.0 0.6 7.1 3.9 0.6 0.8 0.1 0.0 1.9 3.5 3.9 8.6 9.0 9.6 13.8 12.1 6.7 9.3 12.5 6.3 2.3 1.2 0.7 0.8 2.4 0.1 0.2 0.0 0.0 0.2 1.6 1.0 1.5 1.4
nan nan nan nan nan nan nan nan nan nan nan nan nan nan nan nan 0.0 0.6 1.5 0.2 nan 0.5 4.4 10.5 2.7 1.1 1.3 1.4 1.7 4.9 3.4 7.0 8.2 10.2 8.2 7.7 6.7 6.7 5.6 6.3 3.5 3.2 1.6 0.6 0.1 1.4 0.8 0.2 1.8 0.4 0.8 0.7 1.0 1.6
nan nan nan nan nan nan nan nan nan nan nan nan nan nan nan nan nan 0.5 0.0 nan nan 1.9 1.7 13.2 5.1 2.0 0.4 2.7 5.4 2.2 6.6 3.9 4.4 6.8 6.1 6.7 4.9 5.0 12.8 7.7 6.3 4.7 2.6 1.7 1.0 1.2 1.7 1.1 0.7 0.9 0.8 0.9 1.4 2.3
nan nan nan nan nan nan nan nan nan nan nan nan nan nan 0.0 0.8 1.8 1.0 nan nan 0.0 2.6 9.0 6.9 5.7 8.5 0.5 2.1 3.8 5.8 4.7 8.3 3.9 8.1 6.7 2.1 5.2 13.7 15.3 9.3 6.6 6.0 6.4 5.7 2.2 2.2 2.3 2.3 2.7 2.5 2.2 2.4 1.9 4.3
nan nan nan nan nan nan nan nan nan nan nan nan 0.1 4.6 12.1 3.5 nan nan 1.1 4.1 4.8 3.8 3.6 7.1 0.7 5.1 2.1 1.9 3.2 5.5 3.3 6.6 13.8 9.4 2.5 6.8 19.6 8.2 11.7 12.0 9.7 9.4 9.0 6.6 4.5 6.5 3.7 3.7 4.1 4.6 5.7 5.1 4.9 6.0
nan nan nan nan nan nan nan nan nan nan nan 0.8 7.0 8.6 4.3 nan 2.0 4.4 15.2 15.9 7.0 12.6 1.6 2.6 2.7 4.7 1.3 6.4 5.3 3.2 8.8 6.2 15.0 5.2 3.8 9.8 12.3 17.9 12.7 11.3 10.7 9.8 9.2 10.7 7.6 7.7 5.8 6.3 6.9 5.0 4.9 5.0 5.0 4.0
nan nan nan nan nan nan nan nan nan 0.1 2.1 1.8 2.7 3.2 3.1 6.0 13.0 16.2 17.6 9.1 6.0 4.3 1.6 3.1 3.8 3.4 2.3 2.1 8.1 8.3 12.2 11.7 17.2 3.7 8.3 12.0 16.2 13.3 9.8 12.4 11.9 10.7 8.7 10.8 7.1 7.2 6.8 6.0 5.3 5.0 5.1 5.1 4.9 5.4
nan nan nan nan nan nan nan nan nan nan nan 3.0 8.5 19.5 19.9 20.6 42.2 19.8 17.1 8.7 6.7 2.5 2.9 4.3 5.8 2.0 1.0 1.7 7.7 8.9 13.9 11.9 1.6 12.1 8.2 12.2 13.2 10.1 10.4 8.3 9.9 10.2 8.5 7.2 7.4 7.5 6.2 6.4 4.4 3.7 5.3 6.4 4.0 2.6
nan nan nan nan nan nan nan nan nan 0.3 2.2 17.2 29.0 56.4 21.8 21.5 6.7 6.0 5.4 5.2 4.2 4.4 2.9 2.2 2.0 4.9 1.5 7.1 3.7 13.0 3.3 3.9 13.3 11.3 11.1 9.1 7.9 6.6 5.8 7.0 3.8 6.5 5.5 3.8 5.8 3.5 3.6 1.9 2.3 2.2 1.4 1.0 1.1 0.9
nan nan nan nan nan nan nan nan nan 1.4 5.1 32.9 21.6 37.0 21.3 6.1 7.6 6.2 5.0 4.2 1.8 1.0 2.0 1.8 2.1 2.8 5.1 9.4 4.4 4.2 11.2 11.2 3.2 5.8 5.4 5.9 3.5 3.0 2.2 2.1 2.1 1.3 1.5 1.0 0.7 0.7 0.4 0.6 0.7 1.0 1.0 1.0 0.8 0.6
nan nan 0.0 nan nan nan nan nan 2.4 5.1 25.6 31.2 23.6 20.2 2.9 6.1 8.6 5.9 4.5 2.7 0.7 0.5 0.7 2.5 8.5 13.2 10.0 8.0 10.3 11.0 13.9 8.8 6.0 4.3 3.8 1.9 0.5 0.4 0.2 0.1 0.3 0.4 0.3 0.4 0.3 0.2 0.3 0.3 0.5 0.9 0.8 0.9 0.9 1.1
nan 0.3 nan nan nan nan nan 4.8 13.9 32.9 36.0 36.0 27.3 3.8 4.6 5.5 6.5 2.8 0.5 0.1 0.0 2.5 6.0 5.8 15.8 10.5 4.1 11.9 10.4 4.9 10.0 4.5 2.2 2.5 1.0 0.1 0.0 0.0 0.0 0.0 0.0 0.0 0.0 0.1 0.2 0.0 0.0 0.1 0.2 0.3 0.5 1.0 1.0 1.2
0.1 0.0 nan nan nan nan 4.8 9.4 31.4 38.6 41.9 16.5 11.9 6.8 2.9 2.7 2.4 1.2 0.1 0.0 0.8 1.5 2.5 7.7 4.5 13.2 14.4 13.0 7.1 7.2 5.0 3.9 1.2 0.4 0.2 0.1 0.0 0.0 0.0 0.0 0.0 0.0 0.1 0.1 0.1 0.1 0.1 0.2 0.2 0.7 0.7 1.3 1.3 1.3
0.2 0.2 nan nan 0.2 8.0 35.0 40.0 14.7 32.8 23.7 6.9 5.2 3.1 1.8 0.9 0.6 0.6 0.2 0.0 0.1 0.2 4.0 8.3 14.8 17.5 7.0 8.2 7.5 5.9 3.2 0.7 0.2 0.1 0.1 0.0 0.0 0.0 0.0 0.1 0.1 0.1 0.2 0.3 0.1 0.3 0.3 0.3 0.5 1.4 1.4 1.0 1.4 1.6
nan nan nan nan nan 23.1 42.0 36.2 11.2 13.4 16.4 10.5 6.0 7.4 4.8 2.6 0.4 0.4 0.2 0.3 0.6 4.1 11.7 19.7 8.9 5.7 5.4 5.9 4.7 2.7 1.1 0.0 0.0 0.1 0.0 0.0 0.0 0.1 0.2 0.2 0.0 0.1 0.1 0.1 0.4 nan 0.4 0.4 0.4 0.3 0.6 1.1 2.1 1.9
nan nan nan 1.7 12.2 14.5 23.6 24.5 20.2 16.8 12.0 10.8 11.0 6.8 11.8 5.0 6.8 7.4 6.9 0.9 8.1 15.7 14.8 8.3 6.6 5.7 4.6 3.6 0.8 0.2 0.1 0.0 0.0 0.0 0.0 0.3 0.0 0.2 0.4 0.6 0.7 0.0 0.1 0.2 0.8 1.0 0.5 0.8 0.8 0.8 6.3 1.3 0.9 1.3
2.5 nan 5.8 4.2 28.9 30.7 23.1 13.9 16.1 11.0 12.9 12.2 12.9 9.6 17.8 21.1 19.2 18.0 5.3 17.3 18.5 8.5 6.6 5.9 4.9 3.0 2.4 1.2 0.5 0.1 0.0 0.0 0.0 0.0 nan 0.0 0.4 0.6 0.7 0.9 1.6 4.7 3.9 4.3 2.8 2.0 1.2 1.0 1.7 2.0 1.3 1.5 1.5 1.6
nan 2.6 13.1 16.4 28.8 26.7 35.1 9.9 15.5 16.8 18.3 22.1 18.3 18.3 21.8 22.0 15.9 6.6 19.9 10.1 8.2 5.9 4.9 3.8 2.9 2.0 1.3 0.6 0.2 0.1 0.0 0.1 0.2 0.2 0.1 0.2 0.1 0.6 1.1 0.9 1.1 7.2 7.2 2.1 1.1 2.6 4.1 nan 1.3 2.5 1.9 1.5 2.2 3.0
nan 24.6 33.9 28.4 22.3 25.8 9.3 18.0 7.0 10.8 14.0 15.5 19.5 18.4 17.7 15.4 10.9 20.6 16.8 9.8 6.0 4.1 3.4 2.1 1.9 1.9 2.0 2.5 1.2 0.6 0.4 0.2 0.5 0.6 0.4 0.9 1.8 0.7 0.3 0.7 0.7 0.8 1.8 1.9 3.0 3.5 3.0 3.6 nan 3.8 4.1 5.4 5.3 6.2
40.9 53.1 24.7 40.6 15.6 16.8 11.1 10.2 15.6 10.0 12.6 13.0 14.0 16.1 15.3 12.1 17.6 18.4 11.5 9.8 6.5 5.1 2.9 1.7 1.8 2.2 4.3 4.0 0.7 0.8 0.4 0.7 1.8 2.1 0.9 1.0 2.6 2.3 2.6 1.1 0.3 0.8 2.5 8.3 5.6 4.8 4.6 5.3 5.0 5.8 5.5 6.3 7.0 8.0
47.3 21.1 33.4 10.1 14.3 8.1 6.7 9.4 8.9 10.4 8.6 12.7 12.1 10.2 13.5 12.3 15.7 17.4 7.7 8.8 8.0 5.8 6.6 6.5 5.0 3.6 2.0 1.3 2.0 1.9 1.1 0.9 1.6 2.8 1.4 1.5 2.3 6.6 7.4 4.0 3.8 2.3 1.4 6.1 13.1 10.5 7.5 6.7 8.5 8.2 7.5 5.8 nan 10.1
34.6 18.1 7.4 0.9 2.1 1.7 2.9 3.0 2.7 5.7 11.1 10.6 8.9 8.4 11.0 18.3 13.0 4.4 3.1 3.0 5.4 5.1 4.8 3.3 2.5 2.4 2.4 2.1 1.3 1.7 1.6 2.5 3.4 3.4 1.6 1.6 1.6 2.3 7.0 13.2 10.8 1.8 3.3 7.8 9.2 9.6 11.1 8.3 8.9 8.8 8.9 7.6 6.9 7.6
4.2 4.0 5.8 7.9 3.8 4.2 3.8 3.6 5.4 7.6 6.5 3.0 4.3 11.1 11.3 7.8 5.9 3.3 3.5 3.6 6.4 7.5 9.0 6.9 5.1 5.2 7.1 6.5 6.3 6.2 7.9 7.3 7.9 5.5 4.1 2.6 3.3 6.0 6.9 6.4 7.0 nan 9.8 9.2 13.2 11.0 9.8 9.5 9.9 8.9 9.6 9.8 8.3 6.8
7.8 4.4 3.3 9.6 8.6 9.6 10.7 8.5 6.1 2.9 0.5 2.4 7.0 5.7 4.4 1.9 5.5 5.0 3.0 5.0 7.7 9.6 9.0 8.8 10.6 10.1 10.8 9.4 8.9 9.1 10.5 9.5 10.9 7.3 4.3 4.2 5.1 7.9 9.3 9.4 10.8 9.9 9.4 9.4 nan nan 11.6 12.6 11.5 9.9 7.8 8.3 6.3 8.4
7.1 8.2 7.5 9.4 8.4 7.8 8.4 4.7 8.2 7.3 3.0 3.6 4.0 4.8 3.4 4.7 5.1 3.8 5.5 6.9 8.6 11.6 13.5 15.9 15.6 17.2 15.1 12.4 13.2 11.6 12.9 12.8 10.9 11.2 12.1 9.1 7.9 6.7 9.8 12.5 11.3 9.8 9.9 10.4 9.6 8.6 nan 7.4 nan 8.2 10.4 10.5 9.8 11.0
6.7 10.6 9.6 9.4 9.9 11.9 10.2 6.8 9.5 4.9 8.0 10.7 9.5 9.9 8.1 8.4 4.8 4.2 4.8 5.8 8.3 13.4 15.6 16.9 17.1 18.0 14.8 12.8 14.6 13.5 11.9 10.6 11.5 11.2 11.9 12.4 11.8 12.1 13.1 14.1 12.9 12.3 11.0 12.0 11.7 9.9 10.5 10.5 9.9 10.7 10.2 10.9 9.8 9.8
8.6 12.4 11.4 9.7 13.8 15.2 11.9 14.3 15.2 13.4 13.1 13.0 12.0 12.8 10.3 9.4 6.6 5.4 5.3 10.9 11.6 11.5 nan 14.6 12.2 11.1 11.8 11.9 10.8 10.1 nan 9.8 9.7 9.8 11.0 11.6 10.2 9.3 11.9 12.5 12.0 12.7 12.9 12.6 12.8 12.5 12.9 13.9 13.1 11.6 11.1 11.9 11.1 9.7
16.7 15.0 16.6 12.8 18.9 16.5 14.8 15.0 9.1 17.4 13.6 12.8 9.8 9.6 10.6 6.4 5.8 5.2 4.6 9.1 9.3 9.2 9.8 10.5 10.8 12.1 10.3 10.1 9.4 9.2 nan 10.9 11.9 nan nan nan nan nan 11.6 10.8 11.0 11.3 11.0 11.9 12.8 12.3 13.1 13.8 14.0 10.6 11.1 12.0 12.7 11.6
Water_Equivalent
nan nan nan nan nan nan nan nan nan nan nan nan nan nan nan nan nan 0.00 0.00 0.00 0.10 1.05 0.03 0.00 0.00 0.16 0.10 0.16 0.62 0.21 0.73 0.35 0.45 0.67 0.57 0.45 0.49 0.58 0.26 0.01 0.16 0.49 0.31 0.32 0.21 0.45 0.79 0.00 0.00 0.14 0.26 0.03 0.23 0.33
nan nan nan nan nan nan nan nan nan nan nan nan nan nan nan nan nan nan 0.03 0.00 0.00 0.37 0.22 0.00 0.00 0.00 0.01 0.02 0.37 0.15 0.53 0.24 0.30 0.48 0.64 0.52 0.43 0.33 0.24 0.23 0.02 1.05 0.45 0.54 0.09 0.09 0.00 0.00 0.00 0.00 0.00 0.06 0.11 0.36
nan nan nan nan nan nan nan nan nan nan nan nan nan nan nan nan nan nan 0.00 0.00 0.04 0.74 0.34 0.17 0.17 0.00 0.00 0.00 0.00 0.94 0.17 0.68 0.59 0.66 1.24 0.56 0.66 0.46 0.40 0.19 0.13 0.09 0.05 0.14 0.11 0.00 0.00 0.00 0.00 0.00 0.00 0.03 0.05 0.13
nan nan nan nan nan nan nan nan nan nan nan nan nan nan nan nan nan nan 0.00 0.00 0.02 0.64 1.49 0.21 0.00 0.04 0.00 0.00 0.01 0.02 0.10 0.21 0.85 0.92 1.73 1.55 1.08 0.38 0.46 0.42 0.40 0.15 0.05 0.03 0.02 0.01 0.01 0.00 0.01 0.01 0.01 0.01 0.03 0.03
nan nan nan nan nan nan nan nan nan nan nan nan nan nan nan nan nan nan 0.00 0.00 0.00 0.58 0.67 0.15 0.02 0.02 0.00 0.00 0.05 0.17 0.81 1.01 2.09 2.85 2.87 2.16 0.61 0.94 0.33 0.70 0.52 0.19 0.20 0.13 0.05 0.00 0.04 0.02 0.01 0.00 0.06 0.10 0.11 0.19
nan nan nan nan nan nan nan nan nan nan nan nan nan nan nan nan nan 0.00 0.31 0.10 0.00 0.21 1.14 0.69 0.15 0.17 0.03 0.01 0.40 0.73 0.85 1.55 1.49 1.41 1.89 1.64 0.92 1.18 1.48 0.68 0.26 0.16 0.10 0.08 0.21 0.02 0.02 0.01 0.01 0.03 0.16 0.11 0.17 0.16
nan nan nan nan nan nan nan nan nan nan nan nan nan nan nan nan 0.00 0.19 0.34 0.05 nan 0.15 0.77 2.33 0.48 0.25 0.31 0.30 0.44 0.95 0.69 1.10 1.17 1.43 1.12 0.91 0.79 0.90 0.77 0.67 0.40 0.42 0.24 0.09 0.02 0.12 0.10 0.03 0.19 0.05 0.09 0.08 0.12 0.20
nan nan nan nan nan nan nan nan nan nan nan nan nan nan nan nan nan 0.13 0.00 nan nan 0.45 0.35 2.55 1.00 0.33 0.08 0.40 0.69 0.46 0.93 0.59 0.65 0.89 0.86 0.85 0.63 0.67 1.42 0.83 0.75 0.59 0.34 0.22 0.15 0.14 0.18 0.14 0.09 0.12 0.11 0.12 0.16 0.26
nan nan nan nan nan nan nan nan nan nan nan nan nan nan 0.00 0.16 0.37 0.24 nan nan 0.01 0.48 1.62 1.31 1.02 1.94 0.10 0.30 0.55 0.80 0.70 1.04 0.51 1.04 0.79 0.28 0.60 1.52 1.43 0.91 0.72 0.70 0.64 0.62 0.27 0.27 0.29 0.26 0.31 0.29 0.26 0.29 0.21 0.47
nan nan nan nan nan nan nan nan nan nan nan nan 0.01 1.02 2.54 0.68 nan nan 0.25 0.74 1.00 0.72 0.77 1.15 0.08 0.69 0.25 0.23 0.41 0.66 0.47 0.95 2.30 0.90 0.31 0.75 1.71 0.87 1.27 1.32 1.11 1.11 1.10 0.79 0.47 0.66 0.41 0.41 0.43 0.50 0.63 0.58 0.54 0.67
nan nan nan nan nan nan nan nan nan nan nan 0.17 1.28 1.59 0.83 nan 0.36 0.74 3.13 2.85 1.36 2.04 0.29 0.32 0.31 0.50 0.18 0.92 0.68 0.42 1.48 1.05 2.31 0.68 0.45 1.33 1.13 1.68 1.29 1.19 1.20 1.12 1.06 1.25 0.87 0.87 0.64 0.67 0.73 0.53 0.53 0.56 0.57 0.46
nan nan nan nan nan nan nan nan nan 0.03 0.74 0.36 0.44 0.52 0.51 1.17 2.46 2.78 2.82 1.73 1.00 0.74 0.22 0.37 0.47 0.44 0.30 0.27 1.08 1.24 1.81 1.87 2.17 0.51 1.20 1.34 1.49 1.29 0.94 1.20 1.19 1.10 0.90 1.11 0.75 0.73 0.71 0.63 0.55 0.52 0.53 0.54 0.53 0.60
nan nan nan nan nan nan nan nan nan nan nan 0.63 1.76 4.40 3.69 3.69 7.25 2.97 2.26 1.73 1.50 0.41 0.50 0.68 0.97 0.27 0.18 0.26 1.26 1.32 2.06 1.75 0.26 1.95 0.75 1.07 1.18 0.95 0.98 0.77 0.92 0.99 0.83 0.71 0.72 0.77 0.62 0.64 0.46 0.38 0.54 0.69 0.44 0.27
nan nan nan nan nan nan nan nan nan 0.09 0.50 3.57 6.10 10.33 3.49 3.28 1.03 0.86 0.59 0.69 0.53 0.66 0.41 0.29 0.38 0.72 0.23 1.13 0.57 2.09 0.43 0.52 1.81 1.38 0.95 0.77 0.66 0.55 0.50 0.62 0.33 0.55 0.48 0.34 0.53 0.33 0.34 0.17 0.21 0.21 0.13 0.10 0.11 0.09
nan nan nan nan nan nan nan nan nan 0.29 0.99 6.71 4.47 5.93 3.23 0.84 1.13 0.94 1.06 0.77 0.36 0.16 0.26 0.29 0.42 0.33 1.13 1.65 0.66 0.79 1.50 1.59 0.43 0.62 0.49 0.58 0.29 0.25 0.18 0.17 0.18 0.11 0.12 0.08 0.06 0.06 0.04 0.06 0.07 0.09 0.10 0.10 0.08 0.06
nan nan 0.00 nan nan nan nan nan 0.46 1.03 6.26 6.82 4.62 3.37 0.42 1.14 1.53 1.09 1.18 0.71 0.15 0.09 0.15 0.43 1.60 2.10 1.67 1.25 1.58 1.55 1.91 1.03 0.71 0.61 0.40 0.21 0.04 0.03 0.02 0.01 0.02 0.03 0.02 0.03 0.02 0.02 0.02 0.03 0.04 0.08 0.08 0.08 0.08 0.11
nan 0.12 nan nan nan nan nan 1.06 3.70 8.68 8.30 7.65 5.12 0.56 0.67 0.97 0.99 0.38 0.05 0.01 0.01 0.37 1.16 1.16 2.25 1.52 0.92 1.66 1.29 0.77 1.45 0.56 0.35 0.31 0.13 0.01 0.01 0.00 0.00 0.01 0.01 0.00 0.01 0.02 0.02 0.00 0.00 0.01 0.02 0.03 0.04 0.08 0.10 0.11
0.04 0.01 nan nan nan nan 0.81 2.40 7.80 8.98 7.95 3.29 1.76 1.05 0.36 0.33 0.30 0.13 0.01 0.00 0.17 0.35 0.57 1.85 0.89 2.07 1.83 1.46 0.74 0.70 0.52 0.49 0.21 0.09 0.05 0.01 0.00 0.00 0.00 0.00 0.00 0.01 0.02 0.02 0.02 0.03 0.03 0.04 0.04 0.08 0.09 0.16 0.15 0.15
0.05 0.04 nan nan 0.05 2.12 8.22 9.02 4.33 5.73 4.23 1.25 0.83 0.57 0.33 0.13 0.07 0.07 0.03 0.00 0.05 0.06 1.02 1.66 2.41 2.47 0.65 0.75 0.80 0.76 0.46 0.14 0.02 0.01 0.01 0.00 0.00 0.00 0.00 0.02 0.02 0.02 0.04 0.04 0.02 0.06 0.05 0.03 0.05 0.17 0.18 0.13 0.16 0.20
nan nan nan nan nan 5.35 7.90 6.77 2.70 2.30 2.47 1.53 1.12 1.25 0.75 0.40 0.07 0.06 0.03 0.07 0.21 1.28 2.37 3.08 0.89 0.35 0.34 0.42 0.43 0.27 0.12 0.01 0.00 0.00 0.00 0.00 0.00 0.03 0.04 0.06 0.00 0.01 0.01 0.02 0.07 nan 0.08 0.05 0.06 0.04 0.07 0.12 0.23 0.20
nan nan nan 0.23 3.57 3.80 5.11 4.06 3.17 2.65 1.90 1.56 1.86 1.19 1.53 1.18 1.27 1.58 1.60 0.29 1.81 2.77 1.94 0.66 0.46 0.39 0.35 0.30 0.08 0.01 0.01 0.00 0.00 0.00 0.00 0.06 0.00 0.07 0.10 0.15 0.18 0.00 0.01 0.02 0.09 0.10 0.05 0.07 0.08 0.11 1.16 0.15 0.09 0.13
0.40 nan 1.52 1.08 6.30 5.98 3.77 2.27 2.43 1.63 1.80 1.84 1.98 1.66 2.83 3.40 3.03 2.76 1.16 3.13 2.69 1.03 0.53 0.44 0.41 0.27 0.21 0.10 0.05 0.02 0.01 0.01 0.00 0.00 nan 0.00 0.08 0.12 0.13 0.18 0.26 0.72 0.64 0.75 0.44 0.27 0.15 0.12 0.22 0.26 0.18 0.21 0.19 0.20
nan 0.53 2.91 4.28 4.88 4.33 5.56 1.65 2.07 2.32 2.41 3.17 2.73 2.55 3.19 3.30 2.28 1.32 2.89 1.57 1.02 0.55 0.47 0.39 0.27 0.16 0.14 0.05 0.02 0.02 0.01 0.02 0.04 0.03 0.01 0.02 0.02 0.12 0.23 0.15 0.19 1.08 1.04 0.33 0.19 0.37 0.57 nan 0.18 0.32 0.27 0.21 0.27 0.37
nan 4.93 5.81 4.36 3.31 3.61 1.27 2.40 0.91 1.34 1.79 1.97 2.59 2.27 2.28 2.04 1.66 2.89 2.08 1.08 0.68 0.48 0.40 0.23 0.27 0.24 0.24 0.29 0.19 0.10 0.08 0.04 0.07 0.10 0.08 0.16 0.27 0.10 0.04 0.10 0.10 0.13 0.26 0.28 0.43 0.51 0.44 0.51 nan 0.54 0.54 0.65 0.64 0.73
7.53 9.16 3.88 6.18 2.10 2.07 1.25 1.08 1.91 1.13 1.45 1.49 1.61 1.90 1.87 1.41 2.24 2.34 1.22 1.06 0.73 0.59 0.42 0.28 0.30 0.36 0.75 0.72 0.12 0.13 0.05 0.12 0.30 0.31 0.16 0.16 0.37 0.33 0.42 0.19 0.04 0.12 0.35 1.27 0.71 0.59 0.63 0.74 0.70 0.76 0.69 0.75 0.80 0.87
7.60 2.95 4.95 1.24 1.81 0.92 0.73 1.02 0.94 1.15 0.94 1.41 1.33 1.06 1.51 1.43 1.89 2.16 0.74 0.98 0.96 0.82 1.03 1.02 0.85 0.55 0.27 0.20 0.29 0.30 0.20 0.16 0.25 0.42 0.25 0.27 0.35 0.96 1.15 0.55 0.54 0.35 0.24 0.81 1.77 1.36 0.93 0.87 1.07 1.00 0.94 0.76 nan 1.35
4.91 2.33 0.87 0.11 0.21 0.16 0.29 0.32 0.28 0.63 1.24 1.15 0.97 0.87 1.27 2.17 1.45 0.37 0.29 0.32 0.54 0.66 0.59 0.53 0.45 0.43 0.39 0.33 0.22 0.29 0.30 0.49 0.55 0.54 0.27 0.29 0.30 0.36 1.03 1.78 1.33 0.27 0.47 1.19 1.36 1.29 1.39 1.02 1.11 1.12 1.15 1.09 1.00 0.99
0.48 0.42 0.61 0.92 0.38 0.42 0.39 0.35 0.57 0.82 0.70 0.30 0.45 1.20 1.27 0.82 0.61 0.35 0.36 0.40 0.72 0.84 0.95 0.73 0.65 0.71 0.89 0.84 0.84 0.80 0.98 0.91 0.90 0.71 0.58 0.39 0.48 0.93 1.04 1.00 1.08 nan 1.48 1.36 1.77 1.55 1.41 1.33 1.38 1.25 1.23 1.29 1.15 0.96
0.84 0.48 0.35 1.06 0.89 1.03 1.19 0.95 0.65 0.29 0.04 0.24 0.79 0.60 0.43 0.16 0.64 0.57 0.34 0.57 0.92 1.02 0.95 0.92 1.17 1.34 1.32 1.10 1.03 1.12 1.26 1.20 1.27 0.78 0.43 0.46 0.57 0.95 1.32 1.38 1.60 1.51 1.45 1.42 nan nan 1.61 1.78 1.67 1.47 1.19 1.17 0.95 1.29
0.74 0.94 0.79 0.97 0.90 0.82 0.90 0.45 0.90 0.77 0.29 0.38 0.41 0.45 0.30 0.44 0.57 0.49 0.59 0.69 0.83 1.24 1.57 1.96 1.92 2.26 1.88 1.46 1.52 1.23 1.46 1.59 1.39 1.33 1.35 1.01 0.98 0.89 1.33 1.60 1.53 1.43 1.49 1.52 1.39 1.39 nan 1.31 nan 1.36 1.43 1.26 1.24 1.25
0.70 1.21 0.97 0.93 1.02 1.32 1.03 0.57 0.93 0.41 0.76 1.15 0.99 1.08 0.85 0.89 0.47 0.40 0.42 0.55 0.82 1.50 1.81 2.07 2.13 2.30 1.72 1.44 1.71 1.54 1.31 1.19 1.35 1.31 1.36 1.39 1.36 1.46 1.63 1.77 1.72 1.68 1.57 1.55 1.47 1.33 1.41 1.30 1.23 1.33 1.11 1.18 1.08 1.05
0.93 1.31 1.21 0.94 1.54 1.74 1.20 1.55 1.64 1.44 1.41 1.42 1.33 1.40 1.09 1.00 0.63 0.51 0.44 1.13 1.21 1.15 nan 1.60 1.27 1.16 1.32 1.30 1.15 1.12 nan 1.05 1.07 1.07 1.19 1.27 1.19 1.14 1.43 1.56 1.67 1.57 1.57 1.53 1.50 1.42 1.46 1.59 1.45 1.35 1.18 1.37 1.26 1.01
1.92 1.65 1.85 1.27 2.23 1.83 1.62 1.76 0.88 2.20 1.51 1.39 1.00 0.98 1.13 0.63 0.51 0.49 0.38 0.85 0.86 0.83 0.94 1.07 1.12 1.29 1.04 1.01 0.94 0.93 nan 1.16 1.29 nan nan nan nan nan 1.42 1.22 1.25 1.23 1.16 1.30 1.42 1.36 1.40 1.49 1.55 1.20 1.25 1.36 1.37 1.23
SL_Ratio
nan nan nan nan nan nan nan nan nan nan nan nan nan nan nan nan nan nan 0.0 nan 4.0 5.3 4.9 nan nan 4.8 4.3 4.9 7.9 4.6 6.7 5.5 7.1 8.5 7.3 7.5 8.5 9.5 10.7 11.0 11.5 11.8 9.8 7.5 6.9 7.0 8.0 nan 5.0 16.2 12.7 11.1 11.0 11.2
nan nan nan nan nan nan nan nan nan nan nan nan nan nan nan nan nan nan 3.6 nan nan 4.2 4.1 nan nan nan 3.1 3.5 4.9 5.3 5.1 4.8 5.7 6.9 6.0 7.8 7.8 6.2 9.3 9.4 7.6 11.5 9.7 11.6 9.5 11.9 nan nan 0.0 10.0 8.8 11.2 11.3 11.1
nan nan nan nan nan nan nan nan nan nan nan nan nan nan nan nan nan nan 5.0 0.0 3.6 4.1 3.9 4.2 3.6 nan nan nan 3.3 7.2 4.7 4.1 5.9 5.4 7.5 7.1 7.7 5.4 8.9 8.6 10.2 8.0 6.6 8.8 8.2 5.7 nan nan nan nan nan 10.1 9.4 9.0
nan nan nan nan nan nan nan nan nan nan nan nan nan nan nan nan nan nan 2.5 0.0 2.9 4.2 7.1 5.6 nan 3.7 nan nan 3.0 3.5 4.5 5.3 5.2 6.3 7.1 6.2 7.4 7.5 8.3 9.0 9.2 8.9 7.7 8.1 7.4 5.9 6.4 4.0 4.4 4.4 9.6 8.7 8.6 6.8
nan nan nan nan nan nan nan nan nan nan nan nan nan nan nan nan nan nan nan nan nan 5.3 6.3 5.6 3.5 3.4 nan 4.4 4.1 4.2 5.4 6.6 6.6 6.5 6.6 7.7 7.5 8.1 8.4 8.8 9.6 9.2 11.6 10.6 8.3 10.0 10.8 5.8 3.7 5.0 9.8 9.7 8.7 9.3
nan nan nan nan nan nan nan nan nan nan nan nan nan nan nan nan nan nan 4.3 2.6 nan 2.8 6.2 5.6 3.8 4.8 3.0 2.8 4.7 4.8 4.6 5.5 6.0 6.8 7.3 7.4 7.3 7.9 8.5 9.3 8.6 7.5 6.6 10.2 11.6 5.7 7.5 5.7 4.3 7.1 9.9 9.1 8.7 8.9
nan nan nan nan nan nan nan nan nan nan nan nan nan nan nan nan nan 3.2 4.4 2.9 nan 3.1 5.8 4.5 5.7 4.2 4.3 4.5 3.9 5.2 4.9 6.4 7.0 7.1 7.3 8.4 8.5 7.5 7.2 9.5 8.7 7.7 6.9 6.3 5.4 11.1 7.5 5.0 9.6 8.5 8.7 8.1 8.3 8.1
nan nan nan nan nan nan nan nan nan nan nan nan nan nan nan nan nan 4.0 nan nan nan 4.1 4.9 5.2 5.1 6.0 5.0 6.7 7.8 4.7 7.1 6.7 6.8 7.6 7.1 7.9 7.9 7.6 9.0 9.2 8.4 8.1 7.5 7.5 7.0 8.6 9.5 8.1 7.5 7.5 7.2 7.3 8.2 8.7
nan nan nan nan nan nan nan nan nan nan nan nan nan nan 5.0 5.1 4.9 4.3 nan nan 2.8 5.4 5.5 5.2 5.6 4.4 5.2 6.9 6.9 7.2 6.8 8.0 7.7 7.8 8.5 7.6 8.8 9.0 10.7 10.2 9.1 8.5 9.9 9.2 8.2 8.2 7.9 8.9 8.8 8.4 8.5 8.5 8.9 9.1
nan nan nan nan nan nan nan nan nan nan nan nan 5.1 4.5 4.8 5.1 nan nan 4.3 5.6 4.8 5.3 4.7 6.2 8.5 7.4 8.4 8.2 7.8 8.4 6.9 7.0 6.0 10.4 8.1 9.0 11.5 9.4 9.2 9.1 8.8 8.5 8.2 8.3 9.6 9.8 9.0 9.2 9.3 9.2 9.1 8.7 9.1 9.0
nan nan nan nan nan nan nan nan nan nan nan 5.0 5.4 5.4 5.2 nan 5.4 6.0 4.9 5.6 5.2 6.2 5.4 8.0 8.8 9.4 7.1 6.9 7.8 7.7 5.9 5.9 6.5 7.7 8.4 7.4 10.9 10.7 9.8 9.4 9.0 8.7 8.6 8.5 8.7 8.9 9.1 9.4 9.5 9.5 9.2 8.9 8.8 8.8
nan nan nan nan nan nan nan nan nan 2.6 2.9 4.9 6.1 6.2 6.1 5.2 5.3 5.8 6.3 5.3 6.0 5.9 7.2 8.3 8.1 7.7 7.6 7.9 7.5 6.7 6.8 6.3 7.9 7.3 6.9 8.9 10.9 10.3 10.4 10.3 10.0 9.7 9.7 9.7 9.5 9.8 9.6 9.5 9.5 9.5 9.5 9.5 9.3 8.9
nan nan nan nan nan nan nan nan nan nan nan 4.7 4.9 4.4 5.4 5.6 5.8 6.6 7.6 5.1 4.5 6.2 5.7 6.3 6.0 7.2 5.6 6.3 6.1 6.7 6.7 6.8 6.1 6.2 11.0 11.5 11.2 10.6 10.6 10.8 10.8 10.3 10.3 10.2 10.3 9.8 9.9 10.1 9.6 9.7 9.8 9.3 9.1 9.3
nan nan nan nan nan nan nan nan nan 3.1 4.5 4.8 4.8 5.5 6.2 6.5 6.5 6.9 9.0 7.6 8.0 6.6 7.1 7.6 5.2 6.8 6.6 6.3 6.6 6.2 7.6 7.6 7.3 8.1 11.7 11.9 12.0 11.9 11.5 11.2 11.6 11.8 11.4 11.4 10.9 10.6 10.7 10.8 11.0 10.4 10.2 10.0 9.9 10.2
nan nan nan nan nan nan nan nan nan 4.9 5.1 4.9 4.8 6.2 6.6 7.2 6.8 6.5 4.7 5.5 5.0 6.2 7.7 6.0 5.0 8.6 4.5 5.7 6.7 5.4 7.5 7.1 7.5 9.4 10.9 10.3 12.0 12.1 12.3 12.2 11.5 11.8 12.1 12.3 11.6 11.6 11.5 11.0 10.7 11.1 10.8 10.4 10.3 10.1
nan nan 3.3 nan nan nan nan nan 5.2 5.0 4.1 4.6 5.1 6.0 6.9 5.3 5.6 5.4 3.8 3.8 4.3 5.5 4.5 5.8 5.3 6.3 6.0 6.4 6.5 7.1 7.3 8.5 8.4 7.1 9.3 9.1 12.0 12.2 9.9 8.4 10.6 12.6 12.5 11.7 11.5 11.3 11.4 11.5 11.5 11.4 10.9 11.0 10.7 10.6
nan 2.6 nan nan nan nan nan 4.5 3.7 3.8 4.3 4.7 5.3 6.7 6.9 5.6 6.5 7.5 9.2 10.0 5.0 6.8 5.1 5.0 7.0 6.9 4.5 7.2 8.1 6.4 6.9 8.0 6.3 8.0 7.5 5.7 6.4 6.7 4.4 3.7 5.9 5.0 5.3 5.1 8.5 5.0 11.3 11.0 11.0 11.3 11.9 11.5 10.8 10.2
3.7 3.2 nan nan nan nan 5.9 3.9 4.0 4.3 5.3 5.0 6.8 6.5 8.1 8.3 8.2 9.1 9.4 8.8 4.9 4.4 4.4 4.2 5.1 6.4 7.9 8.9 9.6 10.3 9.7 7.9 6.0 5.2 4.0 4.1 13.3 10.0 nan 5.0 6.7 4.2 4.3 5.5 4.7 4.5 4.3 4.8 6.5 9.3 8.6 8.1 8.7 8.7
3.8 4.3 nan nan 5.0 3.8 4.3 4.4 3.4 5.7 5.6 5.5 6.3 5.5 5.5 6.9 8.6 8.6 8.2 8.6 2.6 3.0 3.9 5.0 6.1 7.1 10.6 11.0 9.4 7.7 7.1 4.7 8.5 13.9 13.3 13.3 15.0 nan 3.8 3.8 4.0 4.3 5.2 6.2 5.3 5.0 6.2 9.3 10.1 7.8 7.7 7.4 8.6 8.1
nan nan nan nan nan 4.3 5.3 5.4 4.1 5.8 6.6 6.9 5.3 5.9 6.4 6.4 5.6 6.8 7.4 3.9 3.1 3.2 4.9 6.4 10.0 16.2 16.0 14.2 10.9 10.1 9.1 6.7 15.0 14.7 15.6 14.0 16.7 4.1 4.4 3.8 15.0 4.3 13.8 6.9 6.1 nan 4.8 7.3 6.9 8.3 9.4 9.4 9.1 9.5
nan nan nan 7.5 3.4 3.8 4.6 6.0 6.4 6.3 6.3 6.9 5.9 5.7 7.7 4.3 5.3 4.7 4.3 3.2 4.4 5.7 7.6 12.6 14.4 14.7 13.1 11.9 11.1 11.6 12.1 16.7 12.0 15.0 14.0 4.5 13.3 3.1 3.7 3.8 4.2 3.6 6.4 9.4 8.6 9.2 9.3 11.1 10.7 6.8 5.4 8.7 9.9 9.5
6.2 nan 3.8 3.9 4.6 5.1 6.1 6.1 6.6 6.7 7.2 6.6 6.5 5.8 6.3 6.2 6.3 6.5 4.5 5.5 6.9 8.3 12.5 13.4 11.9 11.4 11.6 13.0 10.0 7.8 4.7 6.7 6.3 7.1 nan 9.2 5.3 5.0 5.7 5.0 6.2 6.5 6.1 5.8 6.3 7.5 7.8 7.6 7.8 7.7 7.3 7.1 7.9 8.2
nan 4.8 4.5 3.8 5.9 6.2 6.3 6.0 7.5 7.2 7.6 7.0 6.7 7.2 6.8 6.7 7.0 5.0 6.9 6.5 8.0 10.8 10.4 9.6 10.9 12.6 9.4 11.4 9.4 9.4 4.7 6.2 6.1 5.6 7.8 7.6 6.3 4.8 4.9 5.8 5.4 6.7 7.0 6.5 5.6 7.1 7.2 nan 6.9 7.9 7.0 7.1 8.1 8.1
nan 5.0 5.8 6.5 6.7 7.2 7.4 7.5 7.8 8.0 7.8 7.8 7.5 8.1 7.8 7.5 6.6 7.1 8.1 9.1 8.9 8.5 8.6 9.5 7.1 7.8 8.2 8.5 6.6 6.1 5.6 4.9 6.8 6.4 5.3 5.8 6.4 7.2 8.1 7.0 7.6 6.6 7.0 6.8 6.9 7.0 6.7 7.0 nan 7.0 7.6 8.3 8.2 8.5
5.4 5.8 6.4 6.6 7.4 8.1 8.8 9.4 8.2 8.9 8.7 8.7 8.7 8.5 8.2 8.6 7.9 7.9 9.4 9.3 8.9 8.6 6.9 6.0 6.1 6.1 5.7 5.6 5.8 5.9 7.0 5.6 6.0 6.7 5.7 5.9 7.0 7.0 6.3 5.7 6.5 6.9 7.2 6.5 7.8 8.0 7.4 7.3 7.2 7.7 7.9 8.4 8.7 9.2
6.2 7.1 6.7 8.1 7.9 8.7 9.2 9.2 9.5 9.1 9.2 9.0 9.1 9.6 9.0 8.6 8.3 8.0 10.5 9.0 8.3 7.1 6.4 6.3 5.9 6.6 7.4 6.5 6.7 6.4 5.7 5.4 6.3 6.7 5.6 5.7 6.8 6.8 6.4 7.2 7.0 6.5 5.9 7.5 7.4 7.7 8.0 7.7 7.9 8.2 8.0 7.6 nan 7.5
7.0 7.8 8.5 8.3 10.0 11.1 10.0 9.5 9.4 9.1 9.0 9.2 9.2 9.6 8.7 8.4 9.0 11.6 10.6 9.3 10.1 7.8 8.0 6.2 5.4 5.6 6.1 6.3 5.8 5.7 5.4 5.2 6.2 6.3 6.0 5.5 5.5 6.4 6.7 7.4 8.1 6.6 7.1 6.5 6.7 7.5 8.0 8.1 8.0 7.8 7.7 6.9 6.9 7.6
8.8 9.4 9.5 8.6 9.8 10.0 9.8 10.1 9.5 9.2 9.3 10.0 9.6 9.2 8.9 9.5 9.6 9.3 9.6 9.0 9.0 8.9 9.4 9.5 8.0 7.3 8.0 7.8 7.5 7.8 8.1 8.1 8.8 7.7 7.2 6.8 6.9 6.5 6.7 6.4 6.4 nan 6.6 6.8 7.5 7.1 6.9 7.1 7.2 7.1 7.8 7.6 7.2 7.1
9.2 9.1 9.3 9.1 9.6 9.3 9.0 9.0 9.3 10.1 12.5 10.0 8.9 9.5 10.3 11.7 8.7 8.9 8.9 8.7 8.4 9.4 9.5 9.5 9.0 7.6 8.2 8.6 8.6 8.1 8.4 7.9 8.6 9.4 10.0 9.1 8.9 8.3 7.0 6.8 6.8 6.6 6.5 6.6 nan nan 7.2 7.1 6.9 6.7 6.6 7.1 6.7 6.5
9.5 8.8 9.5 9.6 9.3 9.6 9.4 10.5 9.1 9.4 10.5 9.6 9.9 10.6 11.6 10.6 8.9 7.7 9.3 10.1 10.3 9.3 8.6 8.1 8.1 7.6 8.0 8.5 8.6 9.4 8.8 8.0 7.8 8.4 8.9 9.0 8.1 7.5 7.3 7.8 7.4 6.8 6.6 6.8 6.9 6.2 nan 5.7 nan 6.0 7.3 8.3 7.9 8.8
9.5 8.7 9.9 10.0 9.7 9.0 9.9 11.8 10.2 12.1 10.5 9.4 9.7 9.1 9.6 9.4 10.4 10.5 11.5 10.5 10.0 9.0 8.6 8.2 8.0 7.8 8.6 8.9 8.5 8.8 9.1 8.9 8.5 8.5 8.7 8.9 8.7 8.3 8.1 7.9 7.5 7.3 7.0 7.7 8.0 7.5 7.5 8.1 8.0 8.1 9.2 9.2 9.1 9.4
9.3 9.4 9.4 10.3 9.0 8.7 9.9 9.3 9.2 9.3 9.3 9.1 9.0 9.2 9.4 9.5 10.5 10.7 12.1 9.7 9.5 10.0 nan 9.1 9.6 9.6 9.0 9.2 9.4 9.1 nan 9.3 9.1 9.1 9.2 9.1 8.6 8.1 8.3 8.0 7.2 8.1 8.2 8.2 8.5 8.8 8.9 8.7 9.0 8.6 9.5 8.6 8.8 9.6
8.7 9.1 9.0 10.0 8.5 9.1 9.1 8.5 10.3 7.9 9.0 9.2 9.8 9.8 9.4 10.3 11.4 10.7 12.2 10.7 10.8 11.1 10.5 9.8 9.7 9.4 10.0 10.0 10.0 9.9 nan 9.4 9.2 nan nan nan nan nan 8.2 8.9 8.8 9.2 9.5 9.2 9.0 9.1 9.3 9.2 9.0 8.8 8.9 8.8 9.3 9.4